Schneifelwetter: Wetterstation Hallschlag, 537 m . NN
Wetterdaten: Samstag, 04.12.2010
Datum Zeit Temp. A. Feuchte A. Luftdruck Regen Wind Richtung Richtung Sonnenschein Helligkeit T Regen Taupunkt Windchill
04.12.2010 00:11 -10,9 C 93 % 1011 hPa 0,0 l/m 5,4 km/h (1 Bft) W-SW 240 0 min 0 lux 0,00 min -11,8 C -10,9 C
04.12.2010 00:25 -11,4 C 93 % 1011 hPa 0,0 l/m 0,3 km/h (0 Bft) W-SW 240 0 min 0 lux 0,00 min -12,3 C -11,4 C
04.12.2010 00:40 -11,5 C 94 % 1012 hPa 0,0 l/m 5,9 km/h (2 Bft) W-SW 240 0 min 0 lux 0,00 min -12,3 C -11,5 C
04.12.2010 00:55 -11,5 C 94 % 1011 hPa 0,0 l/m 6,8 km/h (2 Bft) W-SW 240 0 min 0 lux 0,00 min -12,3 C -12,0 C
04.12.2010 01:10 -11,6 C 94 % 1011 hPa 0,0 l/m 5,0 km/h (1 Bft) W-SW 250 0 min 0 lux 0,00 min -12,4 C -11,6 C
04.12.2010 01:25 -11,3 C 94 % 1011 hPa 0,0 l/m 5,4 km/h (1 Bft) W-SW 250 0 min 0 lux 0,00 min -12,1 C -11,3 C
04.12.2010 01:40 -10,7 C 95 % 1011 hPa 0,0 l/m 5,5 km/h (1 Bft) W-SW22.5 240 0 min 0 lux 0,00 min -11,3 C -10,7 C
04.12.2010 01:55 -9,7 C 96 % 1012 hPa 0,0 l/m 9,2 km/h (2 Bft) W-SW22.5 245 0 min 0 lux 0,00 min -10,2 C -13,3 C
04.12.2010 02:10 -9,3 C 96 % 1012 hPa 0,0 l/m 16,3 km/h (3 Bft) W-SW22.5 250 0 min 0 lux 0,00 min -9,8 C -19,2 C
04.12.2010 02:25 -9,2 C 96 % 1012 hPa 0,0 l/m 10,9 km/h (2 Bft) W-SW22.5 250 0 min 0 lux 0,00 min -9,7 C -14,5 C
04.12.2010 02:40 -9,2 C 96 % 1012 hPa 0,0 l/m 11,5 km/h (2 Bft) SW45 225 0 min 0 lux 0,00 min -9,7 C -15,1 C
04.12.2010 02:55 -9,1 C 96 % 1012 hPa 0,0 l/m 12,8 km/h (3 Bft) W-SW22.5 255 0 min 0 lux 0,00 min -9,6 C -16,2 C
04.12.2010 03:10 -9,0 C 96 % 1012 hPa 0,0 l/m 15,6 km/h (3 Bft) W-SW22.5 250 0 min 0 lux 0,00 min -9,5 C -18,3 C
04.12.2010 03:25 -9,0 C 96 % 1012 hPa 0,0 l/m 17,7 km/h (3 Bft) W-SW22.5 255 0 min 0 lux 0,00 min -9,5 C -19,8 C
04.12.2010 03:40 -8,9 C 96 % 1012 hPa 0,0 l/m 17,6 km/h (3 Bft) W-SW45 240 0 min 0 lux 0,00 min -9,4 C -19,6 C
04.12.2010 03:55 -8,8 C 96 % 1012 hPa 0,0 l/m 15,1 km/h (3 Bft) SW22.5 235 0 min 0 lux 0,00 min -9,3 C -17,7 C
04.12.2010 04:10 -8,7 C 96 % 1012 hPa 0,0 l/m 17,0 km/h (3 Bft) SW22.5 220 0 min 0 lux 0,00 min -9,2 C -19,0 C
04.12.2010 04:25 -8,6 C 96 % 1012 hPa 0,0 l/m 11,2 km/h (2 Bft) SW45 215 0 min 0 lux 0,00 min -9,1 C -14,2 C
04.12.2010 04:40 -8,5 C 96 % 1012 hPa 0,0 l/m 17,1 km/h (3 Bft) SW45 215 0 min 0 lux 0,00 min -9,0 C -18,8 C
04.12.2010 04:55 -8,3 C 96 % 1012 hPa 0,0 l/m 18,1 km/h (3 Bft) SW45 225 0 min 0 lux 0,00 min -8,8 C -19,2 C
04.12.2010 05:10 -8,1 C 96 % 1012 hPa 0,0 l/m 18,0 km/h (3 Bft) SW45 220 0 min 0 lux 0,00 min -8,6 C -18,9 C
04.12.2010 05:25 -7,9 C 96 % 1012 hPa 0,0 l/m 14,5 km/h (3 Bft) SW22.5 235 0 min 0 lux 0,00 min -8,4 C -16,2 C
04.12.2010 05:40 -7,8 C 96 % 1012 hPa 0,0 l/m 15,2 km/h (3 Bft) SW22.5 215 0 min 0 lux 0,00 min -8,3 C -16,6 C
04.12.2010 05:55 -7,6 C 96 % 1012 hPa 0,0 l/m 20,3 km/h (4 Bft) SW45 220 0 min 0 lux 0,00 min -8,1 C -19,6 C
04.12.2010 06:11 -7,6 C 96 % 1012 hPa 0,0 l/m 24,0 km/h (4 Bft) W-SW45 245 0 min 0 lux 0,00 min -8,1 C -21,5 C
04.12.2010 06:26 -7,6 C 96 % 1012 hPa 0,0 l/m 31,2 km/h (5 Bft) SW67.5 230 0 min 0 lux 0,00 min -8,1 C -24,5 C
04.12.2010 06:41 -7,6 C 96 % 1012 hPa 0,0 l/m 31,2 km/h (5 Bft) SW45 215 0 min 0 lux 0,00 min -8,1 C -24,5 C
04.12.2010 06:56 -7,6 C 96 % 1013 hPa 0,0 l/m 37,1 km/h (5 Bft) SW45 215 0 min 0 lux 0,00 min -8,1 C -26,4 C
04.12.2010 07:11 -7,7 C 95 % 1013 hPa 0,0 l/m 35,6 km/h (5 Bft) SW45 230 0 min 0 lux 0,00 min -8,4 C -26,1 C
04.12.2010 07:26 -7,7 C 95 % 1013 hPa 0,0 l/m 30,1 km/h (5 Bft) SW45 235 0 min 0 lux 0,00 min -8,4 C -24,3 C
04.12.2010 07:41 -7,7 C 95 % 1013 hPa 0,0 l/m 30,8 km/h (5 Bft) SW45 235 0 min 0 lux 0,00 min -8,4 C -24,5 C
04.12.2010 07:56 -7,6 C 96 % 1013 hPa 0,0 l/m 25,9 km/h (4 Bft) S-SW22.5 200 0 min 67 lux 0,00 min -8,1 C -22,4 C
04.12.2010 08:11 -7,5 C 95 % 1012 hPa 0,0 l/m 26,0 km/h (4 Bft) S-SW67.5 210 0 min 312 lux 0,00 min -8,2 C -22,3 C
04.12.2010 08:26 -7,3 C 95 % 1013 hPa 0,0 l/m 31,3 km/h (5 Bft) SW45 215 0 min 672 lux 0,00 min -8,0 C -24,1 C
04.12.2010 08:41 -7,2 C 94 % 1012 hPa 0,0 l/m 33,1 km/h (5 Bft) SW67.5 220 0 min 1,53 klux 0,00 min -8,0 C -24,6 C
04.12.2010 08:56 -7,2 C 94 % 1013 hPa 0,0 l/m 32,5 km/h (5 Bft) SW45 215 0 min 2,26 klux 0,00 min -8,0 C -24,4 C
04.12.2010 09:11 -7,1 C 93 % 1013 hPa 0,0 l/m 35,7 km/h (5 Bft) SW45 225 0 min 4,05 klux 0,00 min -8,0 C -25,3 C
04.12.2010 09:26 -6,9 C 93 % 1013 hPa 0,0 l/m 40,7 km/h (6 Bft) SW22.5 225 0 min 5,34 klux 0,00 min -7,8 C -26,3 C
04.12.2010 09:46 -6,7 C 93 % 1013 hPa 0,0 l/m 37,4 km/h (5 Bft) S-SW67.5 205 0 min 7,12 klux 0,00 min -7,6 C -25,2 C
04.12.2010 10:01 -6,7 C 93 % 1013 hPa 0,0 l/m 31,7 km/h (5 Bft) SW45 215 0 min 6,90 klux 0,00 min -7,6 C -23,4 C
04.12.2010 10:17 -6,5 C 92 % 1013 hPa 0,0 l/m 36,7 km/h (5 Bft) SW45 215 0 min 8,30 klux 0,00 min -7,6 C -24,7 C
04.12.2010 10:32 -6,2 C 91 % 1013 hPa 0,0 l/m 31,3 km/h (5 Bft) SW45 220 0 min 10,3 klux 0,00 min -7,4 C -22,6 C
04.12.2010 10:46 -5,9 C 90 % 1013 hPa 0,0 l/m 32,6 km/h (5 Bft) S45 185 0 min 13,5 klux 0,00 min -7,3 C -22,6 C
04.12.2010 11:01 -5,9 C 90 % 1013 hPa 0,0 l/m 29,6 km/h (5 Bft) SW45 220 0 min 11,6 klux 0,00 min -7,3 C -21,6 C
04.12.2010 11:16 -5,7 C 89 % 1013 hPa 0,0 l/m 34,9 km/h (5 Bft) S-SW67.5 200 0 min 14,7 klux 0,00 min -7,2 C -23,0 C
04.12.2010 11:31 -5,7 C 89 % 1013 hPa 0,0 l/m 39,0 km/h (6 Bft) SW45 215 0 min 13,3 klux 0,00 min -7,2 C -24,1 C
04.12.2010 11:46 -5,6 C 89 % 1013 hPa 0,0 l/m 31,3 km/h (5 Bft) SW45 225 0 min 15,6 klux 0,00 min -7,1 C -21,7 C
04.12.2010 12:02 -5,5 C 87 % 1013 hPa 0,0 l/m 33,6 km/h (5 Bft) SW22.5 230 0 min 18,7 klux 0,00 min -7,3 C -22,3 C
04.12.2010 12:16 -5,4 C 87 % 1013 hPa 0,0 l/m 41,0 km/h (6 Bft) SW67.5 230 0 min 19,4 klux 0,00 min -7,2 C -24,2 C
04.12.2010 12:31 -5,0 C 87 % 1012 hPa 0,0 l/m 34,4 km/h (5 Bft) SW45 235 0 min 18,2 klux 0,00 min -6,8 C -21,9 C
04.12.2010 12:46 -5,0 C 87 % 1012 hPa 0,0 l/m 35,9 km/h (5 Bft) W-SW45 245 0 min 19,2 klux 0,00 min -6,8 C -22,3 C
04.12.2010 13:01 -5,0 C 86 % 1012 hPa 0,0 l/m 32,7 km/h (5 Bft) S-SW22.5 195 0 min 16,6 klux 0,00 min -7,0 C -21,3 C
04.12.2010 13:16 -4,9 C 86 % 1012 hPa 0,0 l/m 34,1 km/h (5 Bft) S-SW45 210 0 min 20,8 klux 0,00 min -6,9 C -21,6 C
04.12.2010 13:32 -4,9 C 85 % 1012 hPa 0,0 l/m 33,1 km/h (5 Bft) S-SW45 210 0 min 20,4 klux 0,00 min -7,0 C -21,3 C
04.12.2010 13:47 -5,0 C 85 % 1012 hPa 0,0 l/m 35,8 km/h (5 Bft) S-SW45 205 0 min 21,8 klux 0,00 min -7,1 C -22,3 C
04.12.2010 14:01 -4,7 C 86 % 1012 hPa 0,0 l/m 23,8 km/h (4 Bft) SW45 215 0 min 17,8 klux 0,00 min -6,7 C -17,6 C
04.12.2010 14:16 -5,0 C 85 % 1011 hPa 0,0 l/m 30,0 km/h (5 Bft) S-SW45 210 0 min 13,4 klux 0,00 min -7,1 C -20,4 C
04.12.2010 14:31 -5,1 C 86 % 1011 hPa 0,0 l/m 41,3 km/h (6 Bft) S-SW45 195 0 min 12,8 klux 0,00 min -7,1 C -23,8 C
04.12.2010 14:46 -5,0 C 86 % 1011 hPa 0,0 l/m 31,8 km/h (5 Bft) SW45 215 0 min 11,3 klux 0,00 min -7,0 C -21,0 C
04.12.2010 15:02 -5,1 C 86 % 1011 hPa 0,0 l/m 31,1 km/h (5 Bft) S-SW45 205 0 min 10,6 klux 0,00 min -7,1 C -21,0 C
04.12.2010 15:17 -5,1 C 87 % 1011 hPa 0,0 l/m 22,3 km/h (4 Bft) S-SW22.5 195 0 min 6,50 klux 0,00 min -6,9 C -17,4 C
04.12.2010 15:32 -5,3 C 88 % 1011 hPa 0,0 l/m 36,8 km/h (5 Bft) S-SW45 205 0 min 5,74 klux 0,00 min -7,0 C -23,0 C
04.12.2010 15:46 -5,4 C 88 % 1011 hPa 0,0 l/m 29,4 km/h (5 Bft) S-SW45 205 0 min 3,29 klux 0,00 min -7,1 C -20,8 C
04.12.2010 16:01 -5,5 C 90 % 1011 hPa 0,0 l/m 32,8 km/h (5 Bft) S45 190 0 min 1,60 klux 0,00 min -6,9 C -22,1 C
04.12.2010 16:16 -5,5 C 90 % 1011 hPa 0,0 l/m 36,7 km/h (5 Bft) S-SW45 195 0 min 1,28 klux 0,00 min -6,9 C -23,2 C
04.12.2010 16:31 -5,4 C 91 % 1011 hPa 0,0 l/m 31,7 km/h (5 Bft) SW67.5 215 0 min 569 lux 0,00 min -6,6 C -21,6 C
04.12.2010 16:47 -5,4 C 91 % 1011 hPa 0,0 l/m 27,3 km/h (4 Bft) S-SW45 195 0 min 203 lux 0,00 min -6,6 C -20,0 C
04.12.2010 17:02 -5,4 C 91 % 1011 hPa 0,0 l/m 29,7 km/h (5 Bft) S-SW45 195 0 min 71 lux 0,00 min -6,6 C -20,9 C
04.12.2010 17:16 -5,5 C 91 % 1011 hPa 0,0 l/m 29,2 km/h (5 Bft) S-SW45 195 0 min 19 lux 0,00 min -6,7 C -20,9 C
04.12.2010 17:31 -5,5 C 91 % 1011 hPa 0,0 l/m 30,7 km/h (5 Bft) SW45 215 0 min 4 lux 0,00 min -6,7 C -21,4 C
04.12.2010 17:46 -5,5 C 91 % 1011 hPa 0,0 l/m 32,8 km/h (5 Bft) S-SW45 200 0 min 0 lux 0,00 min -6,7 C -22,1 C
04.12.2010 18:01 -5,4 C 91 % 1011 hPa 0,0 l/m 37,8 km/h (5 Bft) SW45 215 0 min 0 lux 0,00 min -6,6 C -23,4 C
04.12.2010 18:16 -5,4 C 92 % 1011 hPa 0,0 l/m 32,9 km/h (5 Bft) SW67.5 215 0 min 0 lux 0,00 min -6,5 C -22,0 C
04.12.2010 18:32 -5,4 C 92 % 1011 hPa 0,0 l/m 22,6 km/h (4 Bft) SW45 225 0 min 0 lux 0,00 min -6,5 C -17,9 C
04.12.2010 18:47 -5,1 C 92 % 1011 hPa 0,0 l/m 23,8 km/h (4 Bft) S-SW22.5 195 0 min 0 lux 0,00 min -6,2 C -18,1 C
04.12.2010 19:01 -5,1 C 92 % 1011 hPa 0,0 l/m 31,8 km/h (5 Bft) S-SW45 205 0 min 0 lux 0,00 min -6,2 C -21,2 C
04.12.2010 19:16 -5,1 C 92 % 1011 hPa 0,0 l/m 27,2 km/h (4 Bft) SW45 215 0 min 0 lux 0,00 min -6,2 C -19,5 C
04.12.2010 19:31 -5,1 C 93 % 1010 hPa 0,0 l/m 30,5 km/h (5 Bft) S-SW45 210 0 min 0 lux 0,00 min -6,1 C -20,8 C
04.12.2010 19:46 -5,0 C 93 % 1010 hPa 0,0 l/m 35,5 km/h (5 Bft) S-SW45 210 0 min 0 lux 0,00 min -6,0 C -22,2 C
04.12.2010 20:02 -4,9 C 93 % 1010 hPa 0,0 l/m 35,9 km/h (5 Bft) S-SW45 200 0 min 0 lux 0,00 min -5,9 C -22,1 C
04.12.2010 20:17 -4,8 C 93 % 1010 hPa 0,0 l/m 36,7 km/h (5 Bft) S-SW45 205 0 min 0 lux 0,00 min -5,8 C -22,2 C
04.12.2010 20:32 -4,7 C 94 % 1010 hPa 0,0 l/m 32,3 km/h (5 Bft) S-SW45 210 0 min 0 lux 0,00 min -5,5 C -20,8 C
04.12.2010 20:46 -4,7 C 95 % 1010 hPa 0,0 l/m 33,2 km/h (5 Bft) S-SW45 205 0 min 0 lux 0,00 min -5,4 C -21,1 C
04.12.2010 21:01 -4,6 C 95 % 1009 hPa 0,0 l/m 33,2 km/h (5 Bft) S-SW45 210 0 min 0 lux 0,00 min -5,3 C -20,9 C
04.12.2010 21:16 -4,4 C 95 % 1009 hPa 0,0 l/m 32,4 km/h (5 Bft) S-SW45 200 0 min 0 lux 0,00 min -5,1 C -20,4 C
04.12.2010 21:31 -4,2 C 95 % 1009 hPa 0,0 l/m 41,6 km/h (6 Bft) S-SW45 205 0 min 0 lux 0,00 min -4,9 C -22,5 C
04.12.2010 21:47 -4,0 C 94 % 1009 hPa 0,0 l/m 36,3 km/h (5 Bft) S-SW45 205 0 min 0 lux 0,00 min -4,8 C -20,9 C
04.12.2010 22:02 -3,9 C 95 % 1009 hPa 0,0 l/m 34,3 km/h (5 Bft) S-SW22.5 210 0 min 0 lux 0,00 min -4,6 C -20,2 C
04.12.2010 22:16 -3,8 C 95 % 1009 hPa 0,0 l/m 32,6 km/h (5 Bft) S-SW45 195 0 min 0 lux 0,00 min -4,5 C -19,6 C
04.12.2010 22:31 -3,7 C 95 % 1009 hPa 0,0 l/m 29,1 km/h (5 Bft) S-SW45 205 0 min 0 lux 0,00 min -4,4 C -18,3 C
04.12.2010 22:46 -3,4 C 96 % 1009 hPa 0,0 l/m 39,7 km/h (6 Bft) SW45 225 0 min 0 lux 0,00 min -3,9 C -20,9 C
04.12.2010 23:01 -3,2 C 95 % 1008 hPa 0,0 l/m 36,0 km/h (5 Bft) SW45 215 0 min 0 lux 0,00 min -3,9 C -19,7 C
04.12.2010 23:16 -3,1 C 95 % 1008 hPa 0,0 l/m 47,6 km/h (6 Bft) SW45 220 0 min 0 lux 0,00 min -3,8 C -22,0 C
04.12.2010 23:32 -3,0 C 95 % 1008 hPa 0,0 l/m 49,9 km/h (6 Bft) SW45 215 0 min 0 lux 0,00 min -3,7 C -22,3 C
04.12.2010 23:47 -3,0 C 95 % 1008 hPa 0,0 l/m 56,7 km/h (7 Bft) SW45 225 0 min 0 lux 0,00 min -3,7 C -23,2 C
_ Min-Zeit 01:10 13:32 23:01 - 00:25 - - - - - 01:10 06:56
Minimum _ -11,6 C 85 % 1008 hPa - 0,3 km/h (0 Bft) - - - - - -12,4 C -26,4 C
_ Max-Zeit 23:32 01:55 06:56 00:11 23:47 - - 00:11 13:47 00:11 23:32 01:40
Maximum _ -3,0 C 96 % 1013 hPa 0,0 l/m 56,7 km/h
SW (7 Bft)
- - 0 min 21,8 klux 0,00 min -3,7 C -10,7 C
Durchschnitt _ -6,5 C 93 % 1012 hPa #0,0 l/m 28,1 km/h (4 Bft) SW - #0 min. 3,75 klux #0 min. -7,5 C -20,4 C